Time,TemperatureF,DewpointF,PressureIn,WindDirection,WindDirectionDegrees,WindSpeedMPH,WindSpeedGustMPH,Humidity,HourlyPrecipIn,Conditions,Clouds,dailyrainin,SoftwareType,DateUTC
2013-01-05 00:00:00,28.7,20.5,30.54,NW,322,1.0,1.0,71,0.00,,,0.00,Wunderground v.1.15,2013-01-05 05:00:00,
2013-01-05 00:01:00,28.6,20.1,30.54,NW,322,1.0,1.0,70,0.00,,,0.00,Wunderground v.1.15,2013-01-05 05:01:00,
2013-01-05 00:02:00,28.6,20.1,30.53,NW,322,1.0,1.0,70,0.00,,,0.00,Wunderground v.1.15,2013-01-05 05:02:00,
2013-01-05 00:04:00,28.6,19.7,30.54,WSW,248,1.0,1.0,69,0.00,,,0.00,Wunderground v.1.15,2013-01-05 05:04:00,
2013-01-05 00:10:00,29.2,19.9,30.54,NW,321,1.0,1.0,68,0.00,,,0.00,Wunderground v.1.15,2013-01-05 05:10:00,
2013-01-05 00:16:00,29.4,20.5,30.53,WSW,242,1.0,4.0,69,0.00,,,0.00,Wunderground v.1.15,2013-01-05 05:16:00,
2013-01-05 00:22:00,30.0,20.7,30.51,NNW,327,3.0,6.0,68,0.00,,,0.00,Wunderground v.1.15,2013-01-05 05:22:00,
2013-01-05 00:27:00,30.5,20.8,30.49,SE,126,3.0,6.0,67,0.00,,,0.00,Wunderground v.1.15,2013-01-05 05:27:00,
2013-01-05 00:32:00,30.7,21.0,30.50,NNE,26,3.0,6.0,67,0.00,,,0.00,Wunderground v.1.15,2013-01-05 05:32:00,
2013-01-05 00:38:00,30.8,20.8,30.50,ENE,74,2.0,6.0,66,0.00,,,0.00,Wunderground v.1.15,2013-01-05 05:38:00,
2013-01-05 00:44:00,31.0,20.6,30.50,NNW,336,2.0,4.0,65,0.00,,,0.00,Wunderground v.1.15,2013-01-05 05:44:00,
2013-01-05 00:51:00,31.5,20.7,30.50,NNW,344,4.0,4.0,64,0.00,,,0.00,Wunderground v.1.15,2013-01-05 05:51:00,
2013-01-05 00:56:00,31.9,20.3,30.49,North,351,5.0,9.0,62,0.00,,,0.00,Wunderground v.1.15,2013-01-05 05:56:00,
2013-01-05 01:01:00,32.1,20.5,30.49,NW,310,6.0,8.0,62,0.00,,,0.00,Wunderground v.1.15,2013-01-05 06:01:00,
2013-01-05 01:06:00,32.3,20.3,30.49,North,349,6.0,10.0,61,0.00,,,0.00,Wunderground v.1.15,2013-01-05 06:06:00,
2013-01-05 01:12:00,32.5,20.1,30.49,NW,309,6.0,6.0,60,0.00,,,0.00,Wunderground v.1.15,2013-01-05 06:12:00,
2013-01-05 01:17:00,32.6,19.8,30.48,NNE,13,5.0,7.0,59,0.00,,,0.00,Wunderground v.1.15,2013-01-05 06:17:00,
2013-01-05 01:22:00,32.9,19.3,30.49,North,360,4.0,4.0,57,0.00,,,0.00,Wunderground v.1.15,2013-01-05 06:22:00,
2013-01-05 01:28:00,33.2,20.0,30.49,North,5,2.0,5.0,58,0.00,,,0.00,Wunderground v.1.15,2013-01-05 06:28:00,
2013-01-05 01:34:00,33.2,19.6,30.49,NNE,16,2.0,3.0,57,0.00,,,0.00,Wunderground v.1.15,2013-01-05 06:34:00,
2013-01-05 01:40:00,33.0,19.4,30.48,NW,315,2.0,4.0,57,0.00,,,0.00,Wunderground v.1.15,2013-01-05 06:40:00,
2013-01-05 01:51:00,33.0,19.8,30.48,NE,41,4.0,4.0,58,0.00,,,0.00,Wunderground v.1.15,2013-01-05 06:51:00,
2013-01-05 01:56:00,32.8,20.0,30.49,NW,309,3.0,12.0,59,0.00,,,0.00,Wunderground v.1.15,2013-01-05 06:56:00,
2013-01-05 02:02:00,32.7,19.5,30.49,NW,309,2.0,4.0,58,0.00,,,0.00,Wunderground v.1.15,2013-01-05 07:02:00,
2013-01-05 02:07:00,32.7,19.9,30.50,North,351,3.0,5.0,59,0.00,,,0.00,Wunderground v.1.15,2013-01-05 07:07:00,
2013-01-05 02:13:00,32.8,19.6,30.49,NW,317,5.0,11.0,58,0.00,,,0.00,Wunderground v.1.15,2013-01-05 07:13:00,
2013-01-05 02:19:00,32.7,19.5,30.50,NNW,340,5.0,11.0,58,0.00,,,0.00,Wunderground v.1.15,2013-01-05 07:19:00,
2013-01-05 02:24:00,32.6,19.8,30.50,NW,322,4.0,5.0,59,0.00,,,0.00,Wunderground v.1.15,2013-01-05 07:24:00,
2013-01-05 02:30:00,32.5,19.7,30.49,NNW,346,4.0,4.0,59,0.00,,,0.00,Wunderground v.1.15,2013-01-05 07:30:00,
2013-01-05 02:36:00,32.4,19.7,30.50,NW,322,4.0,5.0,59,0.00,,,0.00,Wunderground v.1.15,2013-01-05 07:36:00,
2013-01-05 02:41:00,32.6,19.4,30.51,NNW,342,4.0,6.0,58,0.00,,,0.00,Wunderground v.1.15,2013-01-05 07:41:00,
2013-01-05 02:51:00,32.9,19.7,30.50,North,360,4.0,4.0,58,0.00,,,0.00,Wunderground v.1.15,2013-01-05 07:51:00,
2013-01-05 02:56:00,32.7,19.5,30.51,NNE,27,3.0,5.0,58,0.00,,,0.00,Wunderground v.1.15,2013-01-05 07:56:00,
2013-01-05 03:01:00,32.4,20.0,30.50,NW,319,3.0,3.0,60,0.00,,,0.00,Wunderground v.1.15,2013-01-05 08:01:00,
2013-01-05 03:07:00,32.2,19.5,30.50,NW,323,3.0,6.0,59,0.00,,,0.00,Wunderground v.1.15,2013-01-05 08:07:00,
2013-01-05 03:13:00,32.3,18.8,30.49,NW,319,2.0,2.0,57,0.00,,,0.00,Wunderground v.1.15,2013-01-05 08:13:00,
2013-01-05 03:19:00,32.3,18.8,30.50,NNW,341,2.0,4.0,57,0.00,,,0.00,Wunderground v.1.15,2013-01-05 08:19:00,
2013-01-05 03:24:00,32.2,19.1,30.49,NW,322,1.0,3.0,58,0.00,,,0.00,Wunderground v.1.15,2013-01-05 08:24:00,
2013-01-05 03:30:00,32.0,18.9,30.49,NNW,337,1.0,1.0,58,0.00,,,0.00,Wunderground v.1.15,2013-01-05 08:30:00,
2013-01-05 03:36:00,32.0,19.3,30.49,NNW,334,1.0,2.0,59,0.00,,,0.00,Wunderground v.1.15,2013-01-05 08:36:00,
2013-01-05 03:42:00,31.8,19.1,30.49,NW,320,2.0,3.0,59,0.00,,,0.00,Wunderground v.1.15,2013-01-05 08:42:00,
2013-01-05 03:51:00,31.5,19.2,30.48,NW,322,2.0,2.0,60,0.00,,,0.00,Wunderground v.1.15,2013-01-05 08:51:00,
2013-01-05 03:56:00,31.2,20.1,30.48,NW,319,2.0,11.0,63,0.00,,,0.00,Wunderground v.1.15,2013-01-05 08:56:00,
2013-01-05 04:01:00,31.0,19.5,30.48,NW,317,2.0,2.0,62,0.00,,,0.00,Wunderground v.1.15,2013-01-05 09:01:00,
2013-01-05 04:07:00,31.4,19.1,30.48,NNW,334,2.0,4.0,60,0.00,,,0.00,Wunderground v.1.15,2013-01-05 09:07:00,
2013-01-05 04:13:00,31.7,19.4,30.48,NW,319,3.0,5.0,60,0.00,,,0.00,Wunderground v.1.15,2013-01-05 09:13:00,
2013-01-05 04:19:00,31.5,19.2,30.48,NW,326,3.0,5.0,60,0.00,,,0.00,Wunderground v.1.15,2013-01-05 09:19:00,
2013-01-05 04:24:00,31.5,19.2,30.49,NW,324,4.0,5.0,60,0.00,,,0.00,Wunderground v.1.15,2013-01-05 09:24:00,
2013-01-05 04:30:00,31.3,19.4,30.48,NW,315,2.0,2.0,61,0.00,,,0.00,Wunderground v.1.15,2013-01-05 09:30:00,
2013-01-05 04:36:00,31.1,19.2,30.48,NW,321,2.0,4.0,61,0.00,,,0.00,Wunderground v.1.15,2013-01-05 09:36:00,
2013-01-05 04:42:00,31.2,19.3,30.48,NNW,331,2.0,3.0,61,0.00,,,0.00,Wunderground v.1.15,2013-01-05 09:42:00,
2013-01-05 04:51:00,31.2,19.3,30.49,NNW,327,1.0,1.0,61,0.00,,,0.00,Wunderground v.1.15,2013-01-05 09:51:00,
2013-01-05 04:56:00,31.1,19.2,30.49,NNW,340,1.0,4.0,61,0.00,,,0.00,Wunderground v.1.15,2013-01-05 09:56:00,
2013-01-05 05:02:00,30.8,19.3,30.49,NNW,329,1.0,1.0,62,0.00,,,0.00,Wunderground v.1.15,2013-01-05 10:02:00,
2013-01-05 05:07:00,30.6,18.7,30.49,NNW,333,1.0,2.0,61,0.00,,,0.00,Wunderground v.1.15,2013-01-05 10:07:00,
2013-01-05 05:13:00,30.9,19.0,30.50,NNW,341,1.0,4.0,61,0.00,,,0.00,Wunderground v.1.15,2013-01-05 10:13:00,
2013-01-05 05:18:00,31.1,19.2,30.49,NNW,332,2.0,4.0,61,0.00,,,0.00,Wunderground v.1.15,2013-01-05 10:18:00,
2013-01-05 05:23:00,31.1,19.2,30.49,NW,317,2.0,2.0,61,0.00,,,0.00,Wunderground v.1.15,2013-01-05 10:23:00,
2013-01-05 05:28:00,31.0,19.1,30.49,NW,317,1.0,2.0,61,0.00,,,0.00,Wunderground v.1.15,2013-01-05 10:28:00,
2013-01-05 05:33:00,30.8,20.4,30.50,NW,312,1.0,3.0,65,0.00,,,0.00,Wunderground v.1.15,2013-01-05 10:33:00,
2013-01-05 05:39:00,30.5,19.4,30.50,NW,322,1.0,3.0,63,0.00,,,0.00,Wunderground v.1.15,2013-01-05 10:39:00,
2013-01-05 05:45:00,30.8,18.9,30.50,NNW,337,2.0,4.0,61,0.00,,,0.00,Wunderground v.1.15,2013-01-05 10:45:00,
2013-01-05 05:51:00,30.8,18.9,30.51,NW,323,2.0,2.0,61,0.00,,,0.00,Wunderground v.1.15,2013-01-05 10:51:00,
2013-01-05 05:56:00,30.7,19.6,30.51,NW,316,1.0,3.0,63,0.00,,,0.00,Wunderground v.1.15,2013-01-05 10:56:00,
2013-01-05 06:02:00,30.5,19.0,30.51,NW,316,0.0,1.0,62,0.00,,,0.00,Wunderground v.1.15,2013-01-05 11:02:00,
2013-01-05 06:08:00,30.6,18.3,30.51,NW,321,1.0,3.0,60,0.00,,,0.00,Wunderground v.1.15,2013-01-05 11:08:00,
2013-01-05 06:13:00,30.9,19.4,30.51,NW,321,2.0,2.0,62,0.00,,,0.00,Wunderground v.1.15,2013-01-05 11:13:00,
2013-01-05 06:18:00,30.8,19.3,30.51,NNW,327,1.0,3.0,62,0.00,,,0.00,Wunderground v.1.15,2013-01-05 11:18:00,
2013-01-05 06:24:00,30.6,19.5,30.51,NW,320,1.0,2.0,63,0.00,,,0.00,Wunderground v.1.15,2013-01-05 11:24:00,
2013-01-05 06:29:00,30.4,19.3,30.52,NNW,327,1.0,2.0,63,0.00,,,0.00,Wunderground v.1.15,2013-01-05 11:29:00,
2013-01-05 06:35:00,30.2,18.7,30.52,NW,323,1.0,2.0,62,0.00,,,0.00,Wunderground v.1.15,2013-01-05 11:35:00,
2013-01-05 06:40:00,30.3,19.2,30.52,NW,326,1.0,2.0,63,0.00,,,0.00,Wunderground v.1.15,2013-01-05 11:40:00,
2013-01-05 06:51:00,30.1,19.4,30.52,NW,324,1.0,1.0,64,0.00,,,0.00,Wunderground v.1.15,2013-01-05 11:51:00,
2013-01-05 06:56:00,30.0,19.3,30.52,NNW,334,1.0,3.0,64,0.00,,,0.00,Wunderground v.1.15,2013-01-05 11:56:00,
2013-01-05 07:01:00,29.9,19.2,30.52,NW,311,0.0,0.0,64,0.00,,,0.00,Wunderground v.1.15,2013-01-05 12:01:00,
2013-01-05 07:06:00,29.9,19.2,30.53,NNW,331,0.0,2.0,64,0.00,,,0.00,Wunderground v.1.15,2013-01-05 12:06:00,
2013-01-05 07:11:00,29.9,19.2,30.53,NNW,330,1.0,1.0,64,0.00,,,0.00,Wunderground v.1.15,2013-01-05 12:11:00,
2013-01-05 07:16:00,29.9,19.6,30.54,NNW,329,1.0,1.0,65,0.00,,,0.00,Wunderground v.1.15,2013-01-05 12:16:00,
2013-01-05 07:22:00,29.8,19.1,30.54,NNW,329,0.0,0.0,64,0.00,,,0.00,Wunderground v.1.15,2013-01-05 12:22:00,
2013-01-05 07:28:00,29.9,18.8,30.55,NNW,329,1.0,3.0,63,0.00,,,0.00,Wunderground v.1.15,2013-01-05 12:28:00,
2013-01-05 07:33:00,30.2,18.7,30.55,NNW,329,2.0,2.0,62,0.00,,,0.00,Wunderground v.1.15,2013-01-05 12:33:00,
2013-01-05 07:39:00,30.3,19.2,30.55,NNW,327,2.0,3.0,63,0.00,,,0.00,Wunderground v.1.15,2013-01-05 12:39:00,
2013-01-05 07:45:00,30.5,19.0,30.55,NW,315,2.0,3.0,62,0.00,,,0.00,Wunderground v.1.15,2013-01-05 12:45:00,
2013-01-05 07:51:00,30.5,19.4,30.55,NW,320,2.0,2.0,63,0.00,,,0.00,Wunderground v.1.15,2013-01-05 12:51:00,
2013-01-05 07:56:00,30.4,19.3,30.55,NW,321,2.0,3.0,63,0.00,,,0.00,Wunderground v.1.15,2013-01-05 12:56:00,
2013-01-05 08:01:00,30.6,19.5,30.55,NW,326,2.0,2.0,63,0.00,,,0.00,Wunderground v.1.15,2013-01-05 13:01:00,
2013-01-05 08:06:00,30.9,19.4,30.55,NW,323,2.0,3.0,62,0.00,,,0.00,Wunderground v.1.15,2013-01-05 13:06:00,
2013-01-05 08:12:00,31.1,19.6,30.55,NW,313,2.0,2.0,62,0.00,,,0.00,Wunderground v.1.15,2013-01-05 13:12:00,
2013-01-05 08:17:00,31.3,20.5,30.55,North,355,1.0,2.0,64,0.00,,,0.00,Wunderground v.1.15,2013-01-05 13:17:00,
2013-01-05 08:23:00,31.5,20.7,30.55,NW,321,0.0,2.0,64,0.00,,,0.00,Wunderground v.1.15,2013-01-05 13:23:00,
2013-01-05 08:28:00,31.7,20.5,30.55,NW,322,1.0,2.0,63,0.00,,,0.00,Wunderground v.1.15,2013-01-05 13:28:00,
2013-01-05 08:34:00,32.1,20.9,30.54,NW,318,1.0,1.0,63,0.00,,,0.00,Wunderground v.1.15,2013-01-05 13:34:00,
2013-01-05 08:39:00,32.3,21.1,30.55,NW,325,1.0,1.0,63,0.00,,,0.00,Wunderground v.1.15,2013-01-05 13:39:00,
2013-01-05 08:45:00,32.8,21.2,30.55,NW,325,0.0,1.0,62,0.00,,,0.00,Wunderground v.1.15,2013-01-05 13:45:00,
2013-01-05 08:51:00,33.4,21.0,30.55,NW,319,0.0,1.0,60,0.00,,,0.00,Wunderground v.1.15,2013-01-05 13:51:00,
2013-01-05 08:56:00,33.9,20.3,30.55,NNW,329,1.0,3.0,57,0.00,,,0.00,Wunderground v.1.15,2013-01-05 13:56:00,
2013-01-05 09:02:00,34.1,20.4,30.55,NNW,329,2.0,2.0,57,0.00,,,0.00,Wunderground v.1.15,2013-01-05 14:02:00,
2013-01-05 09:08:00,34.3,19.4,30.55,NNW,329,2.0,2.0,54,0.00,,,0.00,Wunderground v.1.15,2013-01-05 14:08:00,
2013-01-05 09:14:00,34.6,19.2,30.55,NNW,329,2.0,2.0,53,0.00,,,0.00,Wunderground v.1.15,2013-01-05 14:14:00,
2013-01-05 09:20:00,35.1,21.0,30.55,NNW,329,1.0,1.0,56,0.00,,,0.00,Wunderground v.1.15,2013-01-05 14:20:00,
2013-01-05 09:25:00,35.8,21.6,30.55,NNW,329,1.0,3.0,56,0.00,,,0.00,Wunderground v.1.15,2013-01-05 14:25:00,
2013-01-05 09:30:00,36.4,20.9,30.55,NNW,329,1.0,1.0,53,0.00,,,0.00,Wunderground v.1.15,2013-01-05 14:30:00,
2013-01-05 09:36:00,36.9,20.4,30.56,NW,317,1.0,4.0,51,0.00,,,0.00,Wunderground v.1.15,2013-01-05 14:36:00,
2013-01-05 09:42:00,37.3,21.3,30.55,NNW,337,1.0,1.0,52,0.00,,,0.00,Wunderground v.1.15,2013-01-05 14:42:00,
2013-01-05 09:51:00,38.0,21.0,30.55,NNW,338,0.0,0.0,50,0.00,,,0.00,Wunderground v.1.15,2013-01-05 14:51:00,
2013-01-05 09:56:00,38.4,20.4,30.55,NNW,337,0.0,3.0,48,0.00,,,0.00,Wunderground v.1.15,2013-01-05 14:56:00,
2013-01-05 10:01:00,38.9,19.9,30.55,NNW,338,0.0,0.0,46,0.00,,,0.00,Wunderground v.1.15,2013-01-05 15:01:00,
2013-01-05 10:07:00,39.9,21.8,30.55,NNW,338,0.0,0.0,48,0.00,,,0.00,Wunderground v.1.15,2013-01-05 15:07:00,
2013-01-05 10:13:00,40.3,21.6,30.56,West,279,0.0,2.0,47,0.00,,,0.00,Wunderground v.1.15,2013-01-05 15:13:00,
2013-01-05 10:18:00,40.4,21.2,30.56,WSW,249,0.0,2.0,46,0.00,,,0.00,Wunderground v.1.15,2013-01-05 15:18:00,
2013-01-05 10:23:00,40.7,23.5,30.56,WSW,246,0.0,2.0,50,0.00,,,0.00,Wunderground v.1.15,2013-01-05 15:23:00,
2013-01-05 10:29:00,40.5,21.3,30.56,East,90,1.0,2.0,46,0.00,,,0.00,Wunderground v.1.15,2013-01-05 15:29:00,
2013-01-05 10:35:00,40.3,19.5,30.56,East,96,1.0,2.0,43,0.00,,,0.00,Wunderground v.1.15,2013-01-05 15:35:00,
2013-01-05 10:41:00,40.4,19.6,30.55,SE,124,1.0,1.0,43,0.00,,,0.00,Wunderground v.1.15,2013-01-05 15:41:00,
2013-01-05 10:51:00,41.1,18.6,30.56,SSE,168,1.0,1.0,40,0.00,,,0.00,Wunderground v.1.15,2013-01-05 15:51:00,
2013-01-05 10:56:00,41.4,18.9,30.55,East,84,1.0,2.0,40,0.00,,,0.00,Wunderground v.1.15,2013-01-05 15:56:00,
2013-01-05 11:01:00,41.4,20.0,30.55,ESE,116,1.0,3.0,42,0.00,,,0.00,Wunderground v.1.15,2013-01-05 16:01:00,
2013-01-05 11:07:00,41.4,20.5,30.54,SSE,165,1.0,3.0,43,0.00,,,0.00,Wunderground v.1.15,2013-01-05 16:07:00,
2013-01-05 11:13:00,41.7,20.3,30.55,SSW,193,1.0,3.0,42,0.00,,,0.00,Wunderground v.1.15,2013-01-05 16:13:00,
2013-01-05 11:18:00,41.8,20.4,30.54,ESE,107,1.0,3.0,42,0.00,,,0.00,Wunderground v.1.15,2013-01-05 16:18:00,
2013-01-05 11:23:00,41.9,21.0,30.54,ESE,114,1.0,1.0,43,0.00,,,0.00,Wunderground v.1.15,2013-01-05 16:23:00,
2013-01-05 11:29:00,42.3,19.7,30.53,SSE,165,1.0,4.0,40,0.00,,,0.00,Wunderground v.1.15,2013-01-05 16:29:00,
2013-01-05 11:35:00,42.5,19.3,30.53,South,177,1.0,1.0,39,0.00,,,0.00,Wunderground v.1.15,2013-01-05 16:35:00,
2013-01-05 11:41:00,42.7,18.8,30.53,SE,136,1.0,2.0,38,0.00,,,0.00,Wunderground v.1.15,2013-01-05 16:41:00,
2013-01-05 11:51:00,42.2,18.4,30.53,East,87,1.0,2.0,38,0.00,,,0.00,Wunderground v.1.15,2013-01-05 16:51:00,
2013-01-05 11:56:00,42.0,17.6,30.53,East,87,1.0,3.0,37,0.00,,,0.00,Wunderground v.1.15,2013-01-05 16:56:00,
2013-01-05 12:02:00,42.1,20.1,30.53,East,87,1.0,1.0,41,0.00,,,0.00,Wunderground v.1.15,2013-01-05 17:02:00,
2013-01-05 12:08:00,42.8,20.1,30.53,SSE,167,0.0,3.0,40,0.00,,,0.00,Wunderground v.1.15,2013-01-05 17:08:00,
2013-01-05 12:13:00,43.2,20.5,30.52,SE,134,1.0,1.0,40,0.00,,,0.00,Wunderground v.1.15,2013-01-05 17:13:00,
2013-01-05 12:18:00,43.4,21.8,30.52,SE,134,1.0,1.0,42,0.00,,,0.00,Wunderground v.1.15,2013-01-05 17:18:00,
2013-01-05 12:23:00,43.8,20.4,30.52,ENE,62,1.0,1.0,39,0.00,,,0.00,Wunderground v.1.15,2013-01-05 17:23:00,
2013-01-05 12:29:00,44.0,20.6,30.51,ESE,117,1.0,3.0,39,0.00,,,0.00,Wunderground v.1.15,2013-01-05 17:29:00,
2013-01-05 12:35:00,44.0,20.6,30.50,ENE,63,1.0,1.0,39,0.00,,,0.00,Wunderground v.1.15,2013-01-05 17:35:00,
2013-01-05 12:40:00,44.2,20.8,30.50,SE,132,1.0,1.0,39,0.00,,,0.00,Wunderground v.1.15,2013-01-05 17:40:00,
2013-01-05 12:45:00,44.4,20.3,30.50,South,186,1.0,3.0,38,0.00,,,0.00,Wunderground v.1.15,2013-01-05 17:45:00,
2013-01-05 12:51:00,44.3,20.3,30.50,ESE,109,1.0,2.0,38,0.00,,,0.00,Wunderground v.1.15,2013-01-05 17:51:00,
2013-01-05 12:56:00,44.2,20.8,30.49,ESE,116,1.0,3.0,39,0.00,,,0.00,Wunderground v.1.15,2013-01-05 17:56:00,
2013-01-05 13:02:00,44.4,21.6,30.48,SSW,192,1.0,3.0,40,0.00,,,0.00,Wunderground v.1.15,2013-01-05 18:02:00,
2013-01-05 13:07:00,44.7,21.8,30.48,SSW,212,1.0,3.0,40,0.00,,,0.00,Wunderground v.1.15,2013-01-05 18:07:00,
2013-01-05 13:13:00,45.0,20.9,30.48,SE,142,1.0,3.0,38,0.00,,,0.00,Wunderground v.1.15,2013-01-05 18:13:00,
2013-01-05 13:19:00,45.1,21.6,30.47,East,84,1.0,3.0,39,0.00,,,0.00,Wunderground v.1.15,2013-01-05 18:19:00,
2013-01-05 13:25:00,45.2,21.1,30.47,SE,138,1.0,3.0,38,0.00,,,0.00,Wunderground v.1.15,2013-01-05 18:25:00,
2013-01-05 13:30:00,45.0,20.9,30.46,East,84,2.0,2.0,38,0.00,,,0.00,Wunderground v.1.15,2013-01-05 18:30:00,
2013-01-05 13:36:00,45.2,21.7,30.45,ESE,107,1.0,2.0,39,0.00,,,0.00,Wunderground v.1.15,2013-01-05 18:36:00,
2013-01-05 13:42:00,45.1,21.0,30.45,ESE,123,1.0,1.0,38,0.00,,,0.00,Wunderground v.1.15,2013-01-05 18:42:00,
2013-01-05 13:51:00,45.0,22.7,30.44,East,94,2.0,2.0,41,0.00,,,0.00,Wunderground v.1.15,2013-01-05 18:51:00,
2013-01-05 13:56:00,45.0,21.5,30.45,SE,124,1.0,3.0,39,0.00,,,0.00,Wunderground v.1.15,2013-01-05 18:56:00,
2013-01-05 14:01:00,45.1,22.2,30.45,SE,132,1.0,1.0,40,0.00,,,0.00,Wunderground v.1.15,2013-01-05 19:01:00,
2013-01-05 14:07:00,45.3,21.8,30.45,SE,134,0.0,2.0,39,0.00,,,0.00,Wunderground v.1.15,2013-01-05 19:07:00,
2013-01-05 14:13:00,45.3,21.8,30.44,SE,134,0.0,1.0,39,0.00,,,0.00,Wunderground v.1.15,2013-01-05 19:13:00,
2013-01-05 14:19:00,45.3,21.8,30.44,SE,140,1.0,2.0,39,0.00,,,0.00,Wunderground v.1.15,2013-01-05 19:19:00,
2013-01-05 14:25:00,45.3,22.4,30.44,SW,224,1.0,2.0,40,0.00,,,0.00,Wunderground v.1.15,2013-01-05 19:25:00,
2013-01-05 14:30:00,45.3,22.4,30.44,East,100,1.0,2.0,40,0.00,,,0.00,Wunderground v.1.15,2013-01-05 19:30:00,
2013-01-05 14:36:00,45.1,22.2,30.44,East,101,1.0,2.0,40,0.00,,,0.00,Wunderground v.1.15,2013-01-05 19:36:00,
2013-01-05 14:42:00,45.0,22.7,30.43,East,87,1.0,3.0,41,0.00,,,0.00,Wunderground v.1.15,2013-01-05 19:42:00,
2013-01-05 14:51:00,44.9,22.6,30.43,ESE,119,1.0,2.0,41,0.00,,,0.00,Wunderground v.1.15,2013-01-05 19:51:00,
2013-01-05 14:56:00,44.7,23.0,30.42,ESE,117,1.0,2.0,42,0.00,,,0.00,Wunderground v.1.15,2013-01-05 19:56:00,
2013-01-05 15:01:00,44.5,22.8,30.42,ESE,118,1.0,1.0,42,0.00,,,0.00,Wunderground v.1.15,2013-01-05 20:01:00,
2013-01-05 15:06:00,44.4,22.7,30.42,ESE,113,1.0,2.0,42,0.00,,,0.00,Wunderground v.1.15,2013-01-05 20:06:00,
2013-01-05 15:12:00,44.4,23.3,30.42,ESE,105,1.0,2.0,43,0.00,,,0.00,Wunderground v.1.15,2013-01-05 20:12:00,
2013-01-05 15:18:00,44.1,23.0,30.42,East,97,1.0,3.0,43,0.00,,,0.00,Wunderground v.1.15,2013-01-05 20:18:00,
2013-01-05 15:23:00,43.9,23.4,30.42,South,180,1.0,2.0,44,0.00,,,0.00,Wunderground v.1.15,2013-01-05 20:23:00,
2013-01-05 15:29:00,44.0,23.5,30.42,South,175,1.0,2.0,44,0.00,,,0.00,Wunderground v.1.15,2013-01-05 20:29:00,
2013-01-05 15:34:00,44.1,24.1,30.43,South,175,0.0,1.0,45,0.00,,,0.00,Wunderground v.1.15,2013-01-05 20:34:00,
2013-01-05 15:39:00,44.2,23.6,30.43,SE,124,0.0,1.0,44,0.00,,,0.00,Wunderground v.1.15,2013-01-05 20:39:00,
2013-01-05 15:45:00,44.0,22.9,30.43,East,88,1.0,2.0,43,0.00,,,0.00,Wunderground v.1.15,2013-01-05 20:45:00,
2013-01-05 15:51:00,44.0,23.5,30.43,East,88,1.0,1.0,44,0.00,,,0.00,Wunderground v.1.15,2013-01-05 20:51:00,
2013-01-05 15:56:00,44.0,23.5,30.44,ESE,108,0.0,4.0,44,0.00,,,0.00,Wunderground v.1.15,2013-01-05 20:56:00,
2013-01-05 16:02:00,44.1,23.0,30.44,ESE,108,0.0,1.0,43,0.00,,,0.00,Wunderground v.1.15,2013-01-05 21:02:00,
2013-01-05 16:07:00,43.9,22.8,30.44,ESE,109,0.0,1.0,43,0.00,,,0.00,Wunderground v.1.15,2013-01-05 21:07:00,
2013-01-05 16:13:00,43.7,23.2,30.44,East,92,1.0,1.0,44,0.00,,,0.00,Wunderground v.1.15,2013-01-05 21:13:00,
2013-01-05 16:19:00,43.5,23.0,30.44,ESE,111,1.0,2.0,44,0.00,,,0.00,Wunderground v.1.15,2013-01-05 21:19:00,
2013-01-05 16:24:00,43.4,23.4,30.44,ESE,111,1.0,1.0,45,0.00,,,0.00,Wunderground v.1.15,2013-01-05 21:24:00,
2013-01-05 16:30:00,43.3,23.4,30.44,ESE,111,0.0,0.0,45,0.00,,,0.00,Wunderground v.1.15,2013-01-05 21:30:00,
2013-01-05 16:35:00,43.3,23.9,30.43,ESE,111,0.0,0.0,46,0.00,,,0.00,Wunderground v.1.15,2013-01-05 21:35:00,
2013-01-05 16:41:00,43.1,23.7,30.43,SSW,192,0.0,0.0,46,0.00,,,0.00,Wunderground v.1.15,2013-01-05 21:41:00,
2013-01-05 16:51:00,42.8,23.9,30.44,SSW,201,0.0,2.0,47,0.00,,,0.00,Wunderground v.1.15,2013-01-05 21:51:00,
2013-01-05 16:56:00,42.7,24.4,30.43,South,178,0.0,2.0,48,0.00,,,0.00,Wunderground v.1.15,2013-01-05 21:56:00,
2013-01-05 17:02:00,42.5,24.7,30.44,South,178,0.0,0.0,49,0.00,,,0.00,Wunderground v.1.15,2013-01-05 22:02:00,
2013-01-05 17:08:00,42.4,24.6,30.44,South,178,0.0,0.0,49,0.00,,,0.00,Wunderground v.1.15,2013-01-05 22:08:00,
2013-01-05 17:14:00,42.3,24.5,30.44,South,178,0.0,0.0,49,0.00,,,0.00,Wunderground v.1.15,2013-01-05 22:14:00,
2013-01-05 17:20:00,42.1,24.3,30.44,South,178,0.0,0.0,49,0.00,,,0.00,Wunderground v.1.15,2013-01-05 22:20:00,
2013-01-05 17:26:00,42.0,24.7,30.43,South,178,0.0,0.0,50,0.00,,,0.00,Wunderground v.1.15,2013-01-05 22:26:00,
2013-01-05 17:31:00,41.9,24.6,30.43,South,178,0.0,0.0,50,0.00,,,0.00,Wunderground v.1.15,2013-01-05 22:31:00,
2013-01-05 17:37:00,41.8,25.0,30.43,South,178,0.0,0.0,51,0.00,,,0.00,Wunderground v.1.15,2013-01-05 22:37:00,
2013-01-05 17:43:00,41.6,24.8,30.42,South,178,0.0,0.0,51,0.00,,,0.00,Wunderground v.1.15,2013-01-05 22:43:00,
2013-01-05 17:51:00,41.5,25.2,30.43,South,178,0.0,0.0,52,0.00,,,0.00,Wunderground v.1.15,2013-01-05 22:51:00,
2013-01-05 17:56:00,41.4,24.6,30.44,South,178,0.0,1.0,51,0.00,,,0.00,Wunderground v.1.15,2013-01-05 22:56:00,
2013-01-05 18:01:00,41.3,25.9,30.44,South,178,0.0,0.0,54,0.00,,,0.00,Wunderground v.1.15,2013-01-05 23:01:00,
2013-01-05 18:07:00,41.2,24.9,30.44,South,178,0.0,0.0,52,0.00,,,0.00,Wunderground v.1.15,2013-01-05 23:07:00,
2013-01-05 18:13:00,41.1,24.8,30.44,South,178,0.0,0.0,52,0.00,,,0.00,Wunderground v.1.15,2013-01-05 23:13:00,
2013-01-05 18:19:00,41.0,26.1,30.44,South,178,0.0,0.0,55,0.00,,,0.00,Wunderground v.1.15,2013-01-05 23:19:00,
2013-01-05 18:25:00,40.9,25.1,30.45,South,178,0.0,0.0,53,0.00,,,0.00,Wunderground v.1.15,2013-01-05 23:25:00,
2013-01-05 18:31:00,40.8,25.9,30.44,South,178,0.0,0.0,55,0.00,,,0.00,Wunderground v.1.15,2013-01-05 23:31:00,
2013-01-05 18:37:00,40.7,25.3,30.45,South,178,0.0,0.0,54,0.00,,,0.00,Wunderground v.1.15,2013-01-05 23:37:00,
2013-01-05 18:43:00,40.7,26.2,30.45,South,178,0.0,0.0,56,0.00,,,0.00,Wunderground v.1.15,2013-01-05 23:43:00,
2013-01-05 18:51:00,40.5,25.1,30.45,South,178,0.0,0.0,54,0.00,,,0.00,Wunderground v.1.15,2013-01-05 23:51:00,
2013-01-05 18:56:00,40.5,24.7,30.44,South,178,0.0,0.0,53,0.00,,,0.00,Wunderground v.1.15,2013-01-05 23:56:00,
2013-01-05 19:01:00,40.4,25.5,30.45,South,178,0.0,0.0,55,0.00,,,0.00,Wunderground v.1.15,2013-01-06 00:01:00,
2013-01-05 19:07:00,40.3,25.0,30.45,South,178,0.0,0.0,54,0.00,,,0.00,Wunderground v.1.15,2013-01-06 00:07:00,
2013-01-05 19:13:00,40.2,26.2,30.45,South,178,0.0,0.0,57,0.00,,,0.00,Wunderground v.1.15,2013-01-06 00:13:00,
2013-01-05 19:18:00,40.2,27.4,30.45,South,178,0.0,0.0,60,0.00,,,0.00,Wunderground v.1.15,2013-01-06 00:18:00,
2013-01-05 19:24:00,40.1,25.6,30.45,South,178,0.0,0.0,56,0.00,,,0.00,Wunderground v.1.15,2013-01-06 00:24:00,
2013-01-05 19:30:00,40.0,26.4,30.45,South,178,0.0,0.0,58,0.00,,,0.00,Wunderground v.1.15,2013-01-06 00:30:00,
2013-01-05 19:36:00,40.0,27.2,30.45,South,178,0.0,0.0,60,0.00,,,0.00,Wunderground v.1.15,2013-01-06 00:36:00,
2013-01-05 19:41:00,40.0,27.2,30.46,South,178,0.0,0.0,60,0.00,,,0.00,Wunderground v.1.15,2013-01-06 00:41:00,
2013-01-05 19:51:00,39.7,27.3,30.48,South,178,0.0,0.0,61,0.00,,,0.00,Wunderground v.1.15,2013-01-06 00:51:00,
2013-01-05 19:56:00,39.7,29.3,30.48,South,178,0.0,0.0,66,0.00,,,0.00,Wunderground v.1.15,2013-01-06 00:56:00,
2013-01-05 20:01:00,39.7,29.6,30.49,South,178,0.0,0.0,67,0.00,,,0.00,Wunderground v.1.15,2013-01-06 01:01:00,
2013-01-05 20:07:00,39.6,31.0,30.49,South,178,0.0,0.0,71,0.00,,,0.00,Wunderground v.1.15,2013-01-06 01:07:00,
2013-01-05 20:12:00,39.4,31.5,30.49,South,178,0.0,0.0,73,0.00,,,0.00,Wunderground v.1.15,2013-01-06 01:12:00,
2013-01-05 20:17:00,39.2,31.3,30.49,South,178,0.0,0.0,73,0.00,,,0.00,Wunderground v.1.15,2013-01-06 01:17:00,
2013-01-05 20:23:00,39.0,33.0,30.49,South,178,0.0,0.0,79,0.00,,,0.00,Wunderground v.1.15,2013-01-06 01:23:00,
2013-01-05 20:29:00,38.7,32.7,30.49,South,178,0.0,0.0,79,0.00,,,0.01,Wunderground v.1.15,2013-01-06 01:29:00,
2013-01-05 20:35:00,38.3,33.3,30.49,South,178,0.0,0.0,82,0.00,,,0.01,Wunderground v.1.15,2013-01-06 01:35:00,
2013-01-05 20:41:00,37.8,33.4,30.48,West,281,0.0,0.0,84,0.00,,,0.01,Wunderground v.1.15,2013-01-06 01:41:00,
2013-01-05 20:51:00,37.1,33.0,30.47,West,281,0.0,0.0,85,0.00,,,0.01,Wunderground v.1.15,2013-01-06 01:51:00,
2013-01-05 20:56:00,37.0,33.2,30.45,West,281,0.0,0.0,86,0.00,,,0.01,Wunderground v.1.15,2013-01-06 01:56:00,
2013-01-05 21:01:00,37.0,33.5,30.45,West,281,0.0,0.0,87,0.00,,,0.01,Wunderground v.1.15,2013-01-06 02:01:00,
2013-01-05 21:07:00,36.8,33.3,30.44,West,281,0.0,0.0,87,0.00,,,0.01,Wunderground v.1.15,2013-01-06 02:07:00,
2013-01-05 21:12:00,36.7,33.5,30.44,West,281,0.0,0.0,88,0.00,,,0.01,Wunderground v.1.15,2013-01-06 02:12:00,
2013-01-05 21:18:00,36.7,33.5,30.43,West,281,0.0,0.0,88,0.00,,,0.01,Wunderground v.1.15,2013-01-06 02:18:00,
2013-01-05 21:23:00,36.7,33.5,30.43,West,281,0.0,0.0,88,0.00,,,0.01,Wunderground v.1.15,2013-01-06 02:23:00,
2013-01-05 21:29:00,36.6,33.4,30.43,West,281,0.0,1.0,88,0.00,,,0.01,Wunderground v.1.15,2013-01-06 02:29:00,
2013-01-05 21:35:00,36.6,33.7,30.42,West,281,0.0,0.0,89,0.00,,,0.01,Wunderground v.1.15,2013-01-06 02:35:00,
2013-01-05 21:40:00,36.5,33.6,30.42,West,281,0.0,0.0,89,0.00,,,0.01,Wunderground v.1.15,2013-01-06 02:40:00,
2013-01-05 21:51:00,36.4,33.5,30.42,West,281,0.0,0.0,89,0.00,,,0.01,Wunderground v.1.15,2013-01-06 02:51:00,
2013-01-05 21:56:00,36.4,33.5,30.42,West,281,0.0,1.0,89,0.00,,,0.01,Wunderground v.1.15,2013-01-06 02:56:00,
2013-01-05 22:01:00,36.4,33.2,30.41,West,281,0.0,0.0,88,0.00,,,0.01,Wunderground v.1.15,2013-01-06 03:01:00,
2013-01-05 22:07:00,36.4,33.5,30.41,West,281,0.0,0.0,89,0.00,,,0.01,Wunderground v.1.15,2013-01-06 03:07:00,
2013-01-05 22:13:00,36.4,33.2,30.41,West,281,0.0,0.0,88,0.00,,,0.01,Wunderground v.1.15,2013-01-06 03:13:00,
2013-01-05 22:19:00,36.4,33.2,30.41,West,281,0.0,0.0,88,0.00,,,0.01,Wunderground v.1.15,2013-01-06 03:19:00,
2013-01-05 22:24:00,36.4,33.2,30.40,West,281,0.0,0.0,88,0.00,,,0.01,Wunderground v.1.15,2013-01-06 03:24:00,
2013-01-05 22:30:00,36.5,33.6,30.40,West,281,0.0,0.0,89,0.00,,,0.01,Wunderground v.1.15,2013-01-06 03:30:00,
2013-01-05 22:35:00,36.5,33.6,30.40,West,281,0.0,0.0,89,0.00,,,0.02,Wunderground v.1.15,2013-01-06 03:35:00,
2013-01-05 22:40:00,36.5,33.8,30.39,West,281,0.0,0.0,90,0.00,,,0.02,Wunderground v.1.15,2013-01-06 03:40:00,
2013-01-05 22:51:00,36.2,33.3,30.38,West,281,0.0,0.0,89,0.00,,,0.02,Wunderground v.1.15,2013-01-06 03:51:00,
2013-01-05 22:56:00,36.2,33.5,30.37,West,281,0.0,0.0,90,0.00,,,0.03,Wunderground v.1.15,2013-01-06 03:56:00,
2013-01-05 23:01:00,36.2,33.8,30.37,West,281,0.0,0.0,91,0.00,,,0.03,Wunderground v.1.15,2013-01-06 04:01:00,
2013-01-05 23:07:00,36.1,33.7,30.38,West,281,0.0,0.0,91,0.00,,,0.03,Wunderground v.1.15,2013-01-06 04:07:00,
2013-01-05 23:13:00,36.1,33.5,30.38,WNW,294,0.0,0.0,90,0.00,,,0.03,Wunderground v.1.15,2013-01-06 04:13:00,
2013-01-05 23:19:00,36.0,33.4,30.37,WNW,296,0.0,1.0,90,0.00,,,0.03,Wunderground v.1.15,2013-01-06 04:19:00,
2013-01-05 23:25:00,35.9,33.3,30.36,NW,320,0.0,1.0,90,0.00,,,0.03,Wunderground v.1.15,2013-01-06 04:25:00,
2013-01-05 23:30:00,35.9,33.5,30.36,NW,320,0.0,0.0,91,0.00,,,0.03,Wunderground v.1.15,2013-01-06 04:30:00,
2013-01-05 23:36:00,36.0,33.6,30.35,NW,323,0.0,3.0,91,0.00,,,0.03,Wunderground v.1.15,2013-01-06 04:36:00,
2013-01-05 23:42:00,36.2,33.8,30.35,NW,322,2.0,2.0,91,0.00,,,0.03,Wunderground v.1.15,2013-01-06 04:42:00,
2013-01-05 23:51:00,36.5,34.1,30.35,NW,321,1.0,1.0,91,0.00,,,0.03,Wunderground v.1.15,2013-01-06 04:51:00,
2013-01-05 23:56:00,36.8,34.4,30.35,NW,325,2.0,4.0,91,0.00,,,0.03,Wunderground v.1.15,2013-01-06 04:56:00,